CHOMPTT (43855 NORAD) Tracking and Keplerian Element Data

This shows tracking and keplerian element data for the satellite.

Feedback or suggestion? Click here.




ElementValue
Catalog43855
NameCHOMPTT
Epoch Orbit439
Epoch Day14.36054693
Epoch Year2019
RAAN159.1004
Inclination85.0403
Eccentricity0.0018289
Argument of Perigee159.7675
Mean Anonmoly200.465
Mean Motion15.22086782
Decay Rate4.2E-07
L11 43855U 18104G 19014.36054693 .00000042 00000-0 00000+0 0 9995
L22 43855 85.0403 159.1004 0018289 159.7675 200.4650 15.22086782 4399

Live tracking and technical data element details for CHOMPTT (NORAD 43855). CHOMPTT can be tracked NOW for your location showing map with azimuth and elevation plus other details from your city location.

Track the satellite on the map from your city or location and see movement details for azimuth, elevation, latitude, longitude, range, height, and movement on the map or in text.







IsCatalogInMostPopularTable: catalog: 43855, numindb: 21
Update: records affected: 1



GetName: 43855 CHOMPTT

Hit Count: updated at: Thu, 17 Jan 2019 15:00:05 GMT